Probability
0 0 0 0 0 0 0 0 0 0 0 0 0 0 0 0 1 4 4 2 0 3 20 42 57 71 89 97 97 97 97 97 97 96 76 36 6 0 0 0 0 0 0
0 0 0 0 0 0 0 0 0 0 0 0 0 0 0 0 1 4 4 2 0 2 15 45 70 84 93 97 97 97 97 97 97 96 77 36 7 0 0 0 0 0 0
0 0 0 0 0 0 0 0 0 0 0 0 0 0 0 0 0 2 2 1 0 0 6 27 63 88 96 97 97 97 97 97 97 97 82 45 11 0 0 0 0 0 0
0 0 0 0 0 0 0 0 0 0 0 0 0 0 0 0 0 0 0 0 0 0 0 7 30 67 90 97 97 97 97 97 97 97 88 56 17 0 0 0 0 0 0
0 0 0 0 0 0 0 0 0 0 0 0 0 0 0 0 0 0 0 0 0 0 0 0 8 31 67 90 97 97 97 97 97 97 88 56 18 1 0 0 0 0 0
0 0 0 0 0 0 0 0 0 0 0 0 0 0 0 0 0 0 0 0 0 0 0 0 0 7 30 67 89 97 97 97 97 97 86 52 17 1 0 0 0 0 0
0 0 0 0 0 0 0 0 0 0 0 0 0 0 0 0 0 0 0 0 0 0 0 0 1 1 8 30 64 86 95 97 97 97 86 53 17 2 0 0 0 0 0
0 0 0 0 0 0 0 0 0 0 0 0 0 0 0 0 0 0 0 0 0 0 0 1 2 2 1 7 26 53 69 80 90 97 83 47 13 1 0 0 0 0 0
0 0 0 0 0 0 0 0 0 0 0 0 0 0 0 0 0 0 0 0 0 0 0 1 2 2 1 0 5 15 26 40 66 81 65 29 6 0 0 0 0 0 0
0 0 0 0 0 0 0 0 0 0 0 0 0 0 0 0 0 0 0 0 0 0 0 0 1 1 0 0 0 0 1 8 28 44 31 10 1 0 0 0 0 0 0
0 0 0 0 0 0 0 0 0 0 0 0 0 0 0 0 0 0 0 0 0 0 0 0 0 0 0 0 0 0 0 0 5 10 7 1 0 0 0 0 0 0 0
0 0 0 0 0 0 0 0 0 0 0 0 0 0 0 0 0 0 0 0 0 0 0 0 0 0 0 0 0 0 0 0 0 0 0 0 0 0 0 0 0 0 0
0 0 0 0 0 0 0 0 0 0 0 0 0 0 0 0 0 0 0 0 0 0 0 1 0 0 0 0 0 0 0 0 0 0 0 0 0 0 0 0 0 0 0
0 0 0 0 0 0 0 0 0 0 0 0 0 0 0 0 0 0 0 0 0 0 0 0 0 0 0 0 0 0 0 0 0 0 0 0 0 0 0 0 0 0 0
0 0 0 0 0 0 0 0 0 0 0 0 0 0 0 0 0 0 0 0 0 0 0 0 0 0 0 0 0 0 0 0 0 0 0 0 0 0 0 0 0 0 0
0 0 0 0 0 0 0 0 0 0 0 0 0 0 0 0 0 0 0 0 0 0 0 0 0 0 0 0 0 0 0 0 0 0 0 0 0 0 0 0 0 0 0
0 0 0 0 0 0 0 0 0 0 0 0 0 0 0 0 0 0 0 0 0 0 0 0 0 0 0 0 0 0 0 0 0 0 0 0 0 0 0 0 0 0 0
0 0 0 0 0 0 0 0 0 0 0 0 0 0 0 0 0 0 0 0 0 0 0 0 0 0 0 0 0 0 0 0 0 0 0 0 0 0 0 0 0 0 0
0 0 0 0 0 0 0 0 0 0 0 0 0 0 0 0 0 0 0 0 0 0 0 0 0 0 0 0 0 0 0 0 0 0 0 0 0 0 0 0 0 0 0
0 0 0 0 0 0 0 0 0 0 0 0 0 0 0 0 0 0 0 0 0 0 0 0 0 0 1 1 1 0 0 0 0 0 0 0 0 0 0 0 0 0 0
0 0 0 0 0 0 0 0 0 0 0 0 0 0 0 0 0 0 0 0 0 0 0 0 0 0 1 2 1 0 0 0 0 0 0 0 0 0 0 0 0 0 0
0 0 0 0 0 0 0 0 0 0 0 0 0 0 0 0 0 0 0 0 0 0 0 0 0 0 1 1 1 0 0 0 0 0 0 0 0 0 0 0 0 0 0
0 0 0 0 0 0 0 0 0 0 0 0 0 0 0 0 0 0 0 0 0 0 0 0 0 0 0 0 0 0 0 0 0 0 0 0 0 0 0 0 0 0 0
0 0 0 0 0 0 0 0 0 0 0 0 0 0 0 0 0 0 0 0 0 0 0 0 0 0 0 0 0 0 0 0 0 0 0 0 0 0 0 0 0 0 0
0 0 0 0 0 0 0 0 0 0 0 0 0 0 0 0 0 0 0 0 0 0 0 0 0 0 0 0 0 0 0 0 0 0 0 0 0 0 0 0 0 0 0
0 0 0 0 0 0 0 0 0 0 0 0 0 0 0 0 0 0 0 0 0 0 0 0 0 0 0 0 0 0 0 0 0 0 0 0 0 0 0 0 0 0 0
Wind_Speed
5 6 5 6 6 6 6 6 6 7 7 7 9 9 12 14 14 9 8 14 19 24 29 30 30 30 29 28 27 26 26 27 26 26 26 25 25 25 24 23 22 21 19
5 7 7 6 7 8 8 8 7 7 7 8 9 10 10 12 15 14 10 11 17 22 27 30 30 31 31 30 29 28 28 29 28 27 26 26 26 26 25 24 23 22 22
6 6 6 6 6 8 10 10 10 7 7 8 9 10 10 11 13 15 14 11 13 18 25 30 31 32 31 31 31 30 30 31 31 30 28 28 28 27 27 26 24 22 21
6 6 6 5 6 7 7 8 9 9 9 9 9 9 10 11 13 14 15 13 11 11 16 25 30 31 32 30 32 31 31 32 32 32 31 30 30 29 29 27 26 24 23
5 5 5 5 6 6 6 7 8 9 10 10 10 11 11 11 12 13 15 15 14 13 12 16 24 26 29 30 31 31 32 32 33 32 32 32 32 31 31 30 28 25 24
6 6 6 7 7 6 6 7 9 10 11 11 11 13 14 14 13 14 16 14 14 14 14 14 12 15 21 27 29 30 32 33 34 34 34 33 33 33 31 31 29 27 25
7 7 5 7 8 7 8 9 10 12 11 9 11 14 16 15 16 15 13 13 14 14 14 15 12 9 12 21 25 28 30 33 35 36 37 36 35 34 33 31 30 29 27
7 7 5 5 7 7 9 9 8 9 11 9 10 13 14 15 12 12 13 14 13 12 14 15 15 13 10 10 16 24 26 30 37 39 40 39 37 36 35 32 31 30 29
7 7 6 6 8 8 7 7 8 13 14 11 10 12 11 11 8 8 8 9 10 9 12 13 16 14 13 10 12 17 21 22 34 43 44 42 40 38 37 35 33 31 31
7 6 6 7 9 8 8 8 10 9 12 13 12 14 18 14 12 16 12 10 9 6 8 12 13 15 14 12 12 14 18 12 16 38 45 44 41 39 38 37 35 33 31
7 7 7 8 9 8 9 10 11 11 10 12 13 13 14 14 15 18 16 14 14 10 7 9 10 12 14 13 12 14 17 22 19 25 41 42 40 39 38 37 35 34 32
7 8 9 9 9 9 10 10 12 11 10 12 13 15 14 12 10 13 15 13 14 14 11 7 10 10 12 13 15 17 22 23 26 24 29 33 34 35 37 37 35 35 34
8 9 9 10 10 11 12 12 11 12 13 14 16 14 14 14 14 11 12 12 14 12 12 10 7 9 11 11 13 16 25 33 36 40 37 36 36 34 35 36 36 35 34
10 12 11 11 13 13 13 12 12 13 13 13 16 16 14 13 15 13 10 9 13 11 12 15 9 9 9 11 12 16 17 30 36 40 42 39 36 33 32 35 35 34 32
11 13 13 13 14 14 14 13 11 14 14 14 14 16 16 13 13 13 8 10 13 11 12 15 9 11 9 8 9 12 14 25 30 31 33 34 33 28 28 31 32 31 30
14 15 14 15 15 14 14 14 12 14 15 15 12 15 17 14 11 14 10 10 12 13 15 12 10 10 11 9 11 9 14 19 26 29 30 30 31 28 27 28 29 29 30
15 15 15 16 16 16 15 14 15 16 17 16 16 18 19 19 13 15 10 10 10 11 13 12 14 13 16 12 13 11 11 13 15 24 28 29 29 25 24 25 26 26 26
15 15 15 17 17 17 16 16 17 17 18 18 17 18 18 18 16 17 11 10 9 12 13 13 14 12 15 18 19 19 15 13 15 25 30 28 28 26 25 24 23 22 20
15 16 16 17 18 18 18 17 18 18 18 18 18 19 18 22 18 15 14 9 9 10 13 11 12 13 14 15 19 19 19 16 17 24 28 26 26 26 25 23 21 19 19
15 16 16 17 18 18 19 19 20 19 18 18 18 19 19 23 20 17 14 10 8 8 9 8 9 16 15 17 19 20 19 17 15 17 19 18 21 23 24 24 22 19 19
14 16 18 17 17 17 17 20 20 18 19 19 19 19 20 23 29 27 18 11 9 7 8 9 12 13 13 20 20 18 19 17 16 16 15 14 16 17 19 19 17 19 20
15 16 17 18 18 15 25 32 25 18 19 19 18 18 19 23 27 33 33 26 17 13 10 10 13 13 21 22 20 22 20 18 16 12 15 15 16 15 15 14 17 20 21
16 16 18 18 19 20 29 33 31 19 17 18 18 19 17 17 21 18 22 25 21 21 19 11 14 19 20 21 25 26 24 23 17 16 17 13 13 15 12 13 21 23 23
15 17 18 18 18 20 32 33 31 18 17 19 20 20 20 20 20 20 14 13 13 14 15 13 17 19 21 18 23 27 27 24 16 14 17 14 11 10 7 11 23 25 26
15 16 17 18 18 21 30 32 27 14 14 19 19 19 19 19 25 29 20 15 13 13 14 20 25 32 39 33 26 22 21 20 17 15 14 13 11 8 4 4 11 22 26
15 16 18 17 18 21 27 31 28 12 13 14 14 16 20 23 28 30 21 15 16 14 10 12 19 26 25 28 34 28 25 22 19 18 18 16 12 11 8 2 4 11 15
Wind_Direction
352 344 346 339 331 322 312 308 301 296 302 304 307 308 300 301 281 256 242 227 223 227 233 233 228 227 218 210 199 187 182 175 172 176 175 172 170 166 165 166 164 161 159
355 353 338 333 334 330 317 305 293 285 287 294 294 294 292 293 294 270 250 236 225 227 232 235 228 226 221 212 200 189 185 178 173 176 176 173 172 167 167 166 162 166 161
4 348 333 327 327 331 321 309 301 289 283 281 281 284 287 291 290 290 268 249 239 228 229 235 233 226 222 215 203 193 189 183 176 177 177 174 172 169 168 165 163 166 160
3 350 336 320 322 318 306 301 299 298 297 292 284 281 281 283 283 283 280 257 245 238 230 234 237 230 222 217 209 197 192 187 181 179 178 176 173 172 168 166 164 166 167
353 345 326 318 316 309 305 302 297 294 291 288 283 281 278 277 283 280 274 268 251 241 238 233 234 233 226 219 214 205 196 190 185 182 181 177 174 173 171 169 165 166 172
342 337 327 328 326 316 308 305 295 286 280 277 279 282 278 272 273 269 260 260 259 242 238 239 232 231 230 224 219 215 204 194 188 183 181 178 175 173 173 168 163 166 170
331 322 320 328 320 309 301 290 281 278 273 278 283 286 279 267 262 261 252 247 252 245 234 235 232 226 228 225 222 220 212 200 192 185 181 177 177 172 171 166 163 166 171
307 306 306 302 297 286 276 272 276 289 278 270 275 287 289 287 269 254 239 233 240 242 235 225 223 220 216 215 220 220 221 213 199 188 181 175 176 171 168 165 164 168 173
287 288 283 287 288 276 274 283 283 279 281 276 272 271 268 274 328 304 285 254 241 225 235 223 217 214 207 203 205 209 212 220 214 190 177 172 174 172 166 165 166 170 174
280 271 262 269 275 273 281 284 277 276 281 284 278 269 263 264 280 294 292 303 292 250 257 243 216 209 207 200 201 195 201 183 223 199 175 169 171 170 167 166 167 171 175
276 281 276 269 273 276 282 284 277 269 265 276 284 284 279 259 249 264 273 287 296 282 251 260 239 208 208 205 206 200 189 201 198 205 173 164 167 168 168 166 167 171 173
291 282 279 280 281 279 278 279 273 269 276 275 278 279 272 271 248 250 260 267 279 288 278 257 260 221 207 205 209 204 186 180 171 173 157 157 163 171 169 165 172 171 173
290 283 285 286 282 277 276 277 275 274 268 266 266 272 276 276 276 252 263 273 273 278 288 259 255 247 215 207 212 200 189 186 182 185 170 166 165 175 171 169 173 171 173
286 287 286 284 284 282 279 276 276 274 274 276 277 277 279 272 283 256 241 259 269 275 284 266 243 265 225 206 201 186 184 174 174 177 163 157 160 171 171 171 169 169 171
289 290 288 287 284 281 278 276 274 276 273 271 273 274 274 271 287 261 235 239 248 256 267 265 240 269 236 196 156 185 191 164 160 154 148 148 150 162 170 166 166 165 170
289 288 288 287 284 280 280 277 272 273 273 271 273 279 277 269 272 270 243 239 229 229 248 256 241 246 272 204 163 175 163 154 149 147 143 148 151 162 165 162 163 165 170
292 292 291 288 285 282 280 276 271 271 269 268 270 270 269 270 268 274 248 237 231 224 239 255 247 245 266 228 175 157 145 145 144 144 149 153 150 158 159 160 160 165 169
293 290 288 286 286 284 281 276 273 271 270 270 271 271 275 270 262 274 254 230 229 235 239 247 249 261 252 228 184 162 160 157 155 155 155 157 155 157 159 161 157 160 158
295 293 292 288 287 285 282 277 274 270 268 267 268 268 268 268 258 266 261 228 228 237 240 243 258 277 263 224 182 162 163 155 158 159 154 155 157 157 159 159 154 151 144
301 299 293 289 287 286 282 281 280 276 270 266 264 261 261 262 259 259 260 238 230 247 260 245 265 263 243 233 175 163 156 147 151 158 154 160 157 158 158 158 155 151 151
307 301 295 291 287 283 279 277 275 272 269 264 260 257 257 261 260 259 257 247 216 229 255 247 255 268 244 215 169 158 154 143 154 159 149 162 163 167 167 163 158 158 160
308 300 295 292 290 283 284 285 281 274 271 269 266 261 257 258 257 256 258 250 228 206 231 243 243 252 255 198 171 162 151 145 152 153 151 165 171 172 175 170 168 165 160
305 304 300 296 292 288 288 287 284 276 268 261 262 263 261 257 257 253 258 252 247 223 222 249 260 254 248 190 172 163 160 155 154 152 156 161 166 166 163 157 156 159 158
311 309 301 299 299 296 294 293 290 280 270 261 249 250 254 258 257 257 254 248 237 229 229 252 258 255 262 222 178 165 164 153 141 145 158 156 158 149 137 153 159 163 162
310 305 301 305 305 299 298 298 295 284 280 274 252 243 244 250 254 256 255 255 255 244 244 263 268 265 260 231 183 161 153 143 147 160 167 152 144 122 105 109 161 168 165
307 308 305 305 306 300 300 306 304 295 290 292 270 248 244 246 250 252 248 245 251 262 275 279 287 279 236 202 179 164 155 149 150 162 175 163 151 141 140 131 152 170 169